Time,TemperatureF,DewpointF,PressureIn,WindDirection,WindDirectionDegrees,WindSpeedMPH,WindSpeedGustMPH,Humidity,HourlyPrecipIn,Conditions,Clouds,dailyrainin,SoftwareType,DateUTC
2013-01-25 00:00:00,13.8,-1.9,30.19,WSW,256,3.0,4.0,49,0.00,,,0.00,Wunderground v.1.15,2013-01-25 05:00:00,
2013-01-25 00:10:00,13.6,-1.2,30.19,West,263,4.0,4.0,51,0.00,,,0.00,Wunderground v.1.15,2013-01-25 05:10:00,
2013-01-25 00:20:00,13.5,-1.7,30.19,WSW,238,4.0,4.0,50,0.00,,,0.00,Wunderground v.1.15,2013-01-25 05:20:00,
2013-01-25 00:30:00,13.5,-1.7,30.19,WSW,253,4.0,4.0,50,0.00,,,0.00,Wunderground v.1.15,2013-01-25 05:30:00,
2013-01-25 00:40:00,13.3,-1.9,30.20,NW,315,4.0,4.0,50,0.00,,,0.00,Wunderground v.1.15,2013-01-25 05:40:00,
2013-01-25 00:50:00,13.2,-1.6,30.20,West,262,4.0,4.0,51,0.00,,,0.00,Wunderground v.1.15,2013-01-25 05:50:00,
2013-01-25 01:00:00,13.0,-1.4,30.21,West,271,3.0,3.0,52,0.00,,,0.00,Wunderground v.1.15,2013-01-25 06:00:00,
2013-01-25 01:20:00,12.9,-1.4,30.22,WSW,252,3.0,3.0,52,0.00,,,0.00,Wunderground v.1.15,2013-01-25 06:20:00,
2013-01-25 01:30:00,12.9,-0.6,30.23,WSW,245,3.0,3.0,54,0.00,,,0.00,Wunderground v.1.15,2013-01-25 06:30:00,
2013-01-25 01:40:00,12.9,-0.6,30.23,WSW,248,3.0,3.0,54,0.00,,,0.00,Wunderground v.1.15,2013-01-25 06:40:00,
2013-01-25 01:50:00,12.7,-0.8,30.25,NW,308,3.0,3.0,54,0.00,,,0.00,Wunderground v.1.15,2013-01-25 06:50:00,
2013-01-25 02:00:00,12.5,-1.0,30.24,WNW,298,3.0,3.0,54,0.00,,,0.00,Wunderground v.1.15,2013-01-25 07:00:00,
2013-01-25 02:10:00,12.2,-1.3,30.25,WNW,282,2.0,2.0,54,0.00,,,0.00,Wunderground v.1.15,2013-01-25 07:10:00,
2013-01-25 02:20:00,12.0,-1.1,30.25,WNW,288,2.0,5.0,55,0.00,,,0.00,Wunderground v.1.15,2013-01-25 07:20:00,
2013-01-25 02:30:00,11.9,-1.6,30.25,WSW,255,3.0,5.0,54,0.00,,,0.00,Wunderground v.1.15,2013-01-25 07:30:00,
2013-01-25 02:40:00,11.6,-1.5,30.25,WNW,286,3.0,3.0,55,0.00,,,0.00,Wunderground v.1.15,2013-01-25 07:40:00,
2013-01-25 02:50:00,11.4,-1.7,30.25,SW,232,3.0,3.0,55,0.00,,,0.00,Wunderground v.1.15,2013-01-25 07:50:00,
2013-01-25 03:00:00,11.3,-1.8,30.25,West,259,3.0,6.0,55,0.00,,,0.00,Wunderground v.1.15,2013-01-25 08:00:00,
2013-01-25 03:10:00,11.2,-1.8,30.25,West,274,3.0,4.0,55,0.00,,,0.00,Wunderground v.1.15,2013-01-25 08:10:00,
2013-01-25 03:20:00,11.2,-2.2,30.25,West,274,4.0,4.0,54,0.00,,,0.00,Wunderground v.1.15,2013-01-25 08:20:00,
2013-01-25 03:30:00,11.0,-2.4,30.25,WNW,293,3.0,3.0,54,0.00,,,0.00,Wunderground v.1.15,2013-01-25 08:30:00,
2013-01-25 03:40:00,11.0,-2.0,30.25,WSW,255,4.0,4.0,55,0.00,,,0.00,Wunderground v.1.15,2013-01-25 08:40:00,
2013-01-25 03:50:00,11.0,-2.0,30.25,West,280,3.0,3.0,55,0.00,,,0.00,Wunderground v.1.15,2013-01-25 08:50:00,
2013-01-25 04:00:00,10.9,-1.7,30.25,West,281,3.0,6.0,56,0.00,,,0.00,Wunderground v.1.15,2013-01-25 09:00:00,
2013-01-25 04:10:00,11.0,-0.9,30.26,SW,231,3.0,3.0,58,0.00,,,0.00,Wunderground v.1.15,2013-01-25 09:10:00,
2013-01-25 04:20:00,11.2,-0.4,30.26,West,259,3.0,3.0,59,0.00,,,0.00,Wunderground v.1.15,2013-01-25 09:20:00,
2013-01-25 04:30:00,11.2,0.0,30.26,West,276,3.0,3.0,60,0.00,,,0.00,Wunderground v.1.15,2013-01-25 09:30:00,
2013-01-25 04:40:00,11.2,0.0,30.27,WNW,293,3.0,3.0,60,0.00,,,0.00,Wunderground v.1.15,2013-01-25 09:40:00,
2013-01-25 04:50:00,11.1,-0.1,30.27,West,278,3.0,5.0,60,0.00,,,0.00,Wunderground v.1.15,2013-01-25 09:50:00,
2013-01-25 05:00:00,11.1,-0.1,30.26,West,270,3.0,3.0,60,0.00,,,0.00,Wunderground v.1.15,2013-01-25 10:00:00,
2013-01-25 05:10:00,11.0,0.2,30.27,WNW,290,2.0,3.0,61,0.00,,,0.00,Wunderground v.1.15,2013-01-25 10:10:00,
2013-01-25 05:20:00,11.2,0.7,30.27,West,270,3.0,3.0,62,0.00,,,0.00,Wunderground v.1.15,2013-01-25 10:20:00,
2013-01-25 05:30:00,11.1,0.6,30.27,West,274,3.0,3.0,62,0.00,,,0.00,Wunderground v.1.15,2013-01-25 10:30:00,
2013-01-25 05:40:00,11.0,0.2,30.27,SW,235,3.0,3.0,61,0.00,,,0.00,Wunderground v.1.15,2013-01-25 10:40:00,
2013-01-25 05:50:00,10.9,-0.3,30.27,West,267,2.0,3.0,60,0.00,,,0.00,Wunderground v.1.15,2013-01-25 10:50:00,
2013-01-25 06:00:00,10.7,-0.5,30.27,West,281,3.0,3.0,60,0.00,,,0.00,Wunderground v.1.15,2013-01-25 11:00:00,
2013-01-25 06:10:00,10.7,-0.5,30.28,WSW,242,3.0,3.0,60,0.00,,,0.00,Wunderground v.1.15,2013-01-25 11:10:00,
2013-01-25 06:20:00,10.6,-0.6,30.29,West,268,3.0,3.0,60,0.00,,,0.00,Wunderground v.1.15,2013-01-25 11:20:00,
2013-01-25 06:30:00,10.6,-0.9,30.28,NNW,336,3.0,4.0,59,0.00,,,0.00,Wunderground v.1.15,2013-01-25 11:30:00,
2013-01-25 06:40:00,10.6,-0.9,30.28,WNW,290,3.0,3.0,59,0.00,,,0.00,Wunderground v.1.15,2013-01-25 11:40:00,
2013-01-25 06:50:00,10.6,-1.3,30.28,WSW,246,3.0,3.0,58,0.00,,,0.00,Wunderground v.1.15,2013-01-25 11:50:00,
2013-01-25 07:00:00,10.6,-1.3,30.28,NW,312,3.0,3.0,58,0.00,,,0.00,Wunderground v.1.15,2013-01-25 12:00:00,
2013-01-25 07:10:00,10.5,-1.0,30.27,SSW,212,2.0,3.0,59,0.00,,,0.00,Wunderground v.1.15,2013-01-25 12:10:00,
2013-01-25 07:20:00,11.0,-0.5,30.28,NW,321,2.0,2.0,59,0.00,,,0.00,Wunderground v.1.15,2013-01-25 12:20:00,
2013-01-25 07:30:00,11.4,-0.2,30.28,WNW,282,3.0,3.0,59,0.00,,,0.00,Wunderground v.1.15,2013-01-25 12:30:00,
2013-01-25 07:40:00,12.4,0.4,30.28,West,278,3.0,3.0,58,0.00,,,0.00,Wunderground v.1.15,2013-01-25 12:40:00,
2013-01-25 07:50:00,12.8,0.4,30.28,West,264,3.0,3.0,57,0.00,,,0.00,Wunderground v.1.15,2013-01-25 12:50:00,
2013-01-25 08:00:00,13.2,0.8,30.29,WNW,285,3.0,5.0,57,0.00,,,0.00,Wunderground v.1.15,2013-01-25 13:00:00,
2013-01-25 08:10:00,13.7,1.3,30.29,SW,217,3.0,3.0,57,0.00,,,0.00,Wunderground v.1.15,2013-01-25 13:10:00,
2013-01-25 08:20:00,13.9,1.1,30.29,WNW,299,3.0,3.0,56,0.00,,,0.00,Wunderground v.1.15,2013-01-25 13:20:00,
2013-01-25 08:30:00,14.1,0.9,30.30,West,263,4.0,4.0,55,0.00,,,0.00,Wunderground v.1.15,2013-01-25 13:30:00,
2013-01-25 08:40:00,14.5,1.2,30.30,WNW,288,3.0,3.0,55,0.00,,,0.00,Wunderground v.1.15,2013-01-25 13:40:00,
2013-01-25 08:50:00,14.9,1.6,30.31,SW,219,3.0,3.0,55,0.00,,,0.00,Wunderground v.1.15,2013-01-25 13:50:00,
2013-01-25 09:00:00,15.5,2.6,30.31,West,262,2.0,2.0,56,0.00,,,0.00,Wunderground v.1.15,2013-01-25 14:00:00,
2013-01-25 09:10:00,15.8,2.5,30.31,West,274,3.0,4.0,55,0.00,,,0.00,Wunderground v.1.15,2013-01-25 14:10:00,
2013-01-25 09:20:00,15.8,2.1,30.31,NNW,340,3.0,3.0,54,0.00,,,0.00,Wunderground v.1.15,2013-01-25 14:20:00,
2013-01-25 09:30:00,15.9,1.8,30.32,WNW,290,3.0,4.0,53,0.00,,,0.00,Wunderground v.1.15,2013-01-25 14:30:00,
2013-01-25 09:40:00,16.2,1.6,30.31,WSW,249,3.0,3.0,52,0.00,,,0.00,Wunderground v.1.15,2013-01-25 14:40:00,
2013-01-25 09:50:00,16.2,1.6,30.31,WNW,286,3.0,3.0,52,0.00,,,0.00,Wunderground v.1.15,2013-01-25 14:50:00,
2013-01-25 10:00:00,16.8,2.6,30.31,WNW,295,2.0,2.0,53,0.00,,,0.00,Wunderground v.1.15,2013-01-25 15:00:00,
2013-01-25 10:10:00,17.2,2.1,30.31,SSE,155,3.0,3.0,51,0.00,,,0.00,Wunderground v.1.15,2013-01-25 15:10:00,
2013-01-25 10:20:00,17.8,2.3,30.31,WNW,295,2.0,3.0,50,0.00,,,0.00,Wunderground v.1.15,2013-01-25 15:20:00,
2013-01-25 10:30:00,17.3,2.2,30.30,West,259,4.0,4.0,51,0.00,,,0.00,Wunderground v.1.15,2013-01-25 15:30:00,
2013-01-25 10:40:00,17.2,2.1,30.30,West,259,3.0,6.0,51,0.00,,,0.00,Wunderground v.1.15,2013-01-25 15:40:00,
2013-01-25 10:50:00,17.7,2.6,30.29,West,278,3.0,3.0,51,0.00,,,0.00,Wunderground v.1.15,2013-01-25 15:50:00,
2013-01-25 11:00:00,18.2,3.1,30.28,WNW,294,3.0,5.0,51,0.00,,,0.00,Wunderground v.1.15,2013-01-25 16:00:00,
2013-01-25 11:10:00,18.9,2.9,30.29,WSW,255,3.0,3.0,49,0.00,,,0.00,Wunderground v.1.15,2013-01-25 16:10:00,
2013-01-25 11:20:00,19.3,3.7,30.28,NW,307,3.0,5.0,50,0.00,,,0.00,Wunderground v.1.15,2013-01-25 16:20:00,
2013-01-25 11:30:00,19.3,3.7,30.27,WNW,283,3.0,3.0,50,0.00,,,0.00,Wunderground v.1.15,2013-01-25 16:30:00,
2013-01-25 11:40:00,19.2,3.6,30.27,WNW,293,4.0,4.0,50,0.00,,,0.00,Wunderground v.1.15,2013-01-25 16:40:00,
2013-01-25 11:50:00,19.4,2.9,30.27,WNW,288,3.0,4.0,48,0.00,,,0.00,Wunderground v.1.15,2013-01-25 16:50:00,
2013-01-25 12:00:00,19.6,3.5,30.26,NNW,333,3.0,3.0,49,0.00,,,0.00,Wunderground v.1.15,2013-01-25 17:00:00,
2013-01-25 12:10:00,20.5,3.4,30.26,WSW,255,2.0,3.0,47,0.00,,,0.00,Wunderground v.1.15,2013-01-25 17:10:00,
2013-01-25 12:20:00,20.8,2.8,30.26,West,264,3.0,3.0,45,0.00,,,0.00,Wunderground v.1.15,2013-01-25 17:20:00,
2013-01-25 12:30:00,21.3,3.2,30.25,WNW,283,2.0,2.0,45,0.00,,,0.00,Wunderground v.1.15,2013-01-25 17:30:00,
2013-01-25 12:40:00,21.7,4.1,30.25,NW,313,2.0,2.0,46,0.00,,,0.00,Wunderground v.1.15,2013-01-25 17:40:00,
2013-01-25 12:50:00,21.8,3.2,30.24,West,277,2.0,2.0,44,0.00,,,0.00,Wunderground v.1.15,2013-01-25 17:50:00,
2013-01-25 13:00:00,21.9,3.8,30.24,West,260,1.0,2.0,45,0.00,,,0.00,Wunderground v.1.15,2013-01-25 18:00:00,
2013-01-25 13:10:00,21.7,2.1,30.23,West,259,2.0,2.0,42,0.00,,,0.00,Wunderground v.1.15,2013-01-25 18:10:00,
2013-01-25 13:20:00,21.8,3.2,30.23,WSW,241,2.0,2.0,44,0.00,,,0.00,Wunderground v.1.15,2013-01-25 18:20:00,
2013-01-25 13:30:00,21.9,1.8,30.22,NW,314,2.0,2.0,41,0.00,,,0.00,Wunderground v.1.15,2013-01-25 18:30:00,
2013-01-25 13:40:00,22.5,2.3,30.22,SSW,207,1.0,3.0,41,0.00,,,0.00,Wunderground v.1.15,2013-01-25 18:40:00,
2013-01-25 13:50:00,22.9,2.1,30.22,SSW,199,1.0,2.0,40,0.00,,,0.00,Wunderground v.1.15,2013-01-25 18:50:00,
2013-01-25 14:00:00,23.2,3.5,30.22,SW,218,1.0,2.0,42,0.00,,,0.00,Wunderground v.1.15,2013-01-25 19:00:00,
2013-01-25 14:10:00,23.4,5.2,30.21,SW,215,2.0,2.0,45,0.00,,,0.00,Wunderground v.1.15,2013-01-25 19:10:00,
2013-01-25 14:20:00,23.6,4.8,30.20,SSW,203,1.0,3.0,44,0.00,,,0.00,Wunderground v.1.15,2013-01-25 19:20:00,
2013-01-25 14:30:00,24.2,5.4,30.20,SSE,163,2.0,5.0,44,0.00,,,0.00,Wunderground v.1.15,2013-01-25 19:30:00,
2013-01-25 14:40:00,24.5,4.6,30.20,WSW,239,2.0,2.0,42,0.00,,,0.00,Wunderground v.1.15,2013-01-25 19:40:00,
2013-01-25 14:50:00,24.4,4.6,30.20,South,180,1.0,2.0,42,0.00,,,0.00,Wunderground v.1.15,2013-01-25 19:50:00,
2013-01-25 15:00:00,23.8,5.5,30.19,WSW,240,1.0,2.0,45,0.00,,,0.00,Wunderground v.1.15,2013-01-25 20:00:00,
2013-01-25 15:10:00,23.5,4.2,30.18,SSE,152,1.0,2.0,43,0.00,,,0.00,Wunderground v.1.15,2013-01-25 20:10:00,
2013-01-25 15:20:00,23.2,4.5,30.18,SW,226,1.0,2.0,44,0.00,,,0.00,Wunderground v.1.15,2013-01-25 20:20:00,
2013-01-25 15:30:00,22.8,6.0,30.18,WSW,248,1.0,1.0,48,0.00,,,0.00,Wunderground v.1.15,2013-01-25 20:30:00,
2013-01-25 15:40:00,22.6,8.8,30.19,WNW,290,0.0,2.0,55,0.00,,,0.00,Wunderground v.1.15,2013-01-25 20:40:00,
2013-01-25 15:50:00,22.3,7.7,30.18,SSW,212,1.0,3.0,53,0.00,,,0.00,Wunderground v.1.15,2013-01-25 20:50:00,
2013-01-25 16:00:00,21.9,9.4,30.19,SW,224,1.0,3.0,58,0.00,,,0.00,Wunderground v.1.15,2013-01-25 21:00:00,
2013-01-25 16:10:00,21.7,9.2,30.18,WNW,290,1.0,1.0,58,0.00,,,0.00,Wunderground v.1.15,2013-01-25 21:10:00,
2013-01-25 16:20:00,21.7,8.4,30.18,SE,132,0.0,2.0,56,0.00,,,0.00,Wunderground v.1.15,2013-01-25 21:20:00,
2013-01-25 16:30:00,21.7,7.2,30.18,SW,226,1.0,1.0,53,0.00,,,0.00,Wunderground v.1.15,2013-01-25 21:30:00,
2013-01-25 16:40:00,21.6,8.3,30.18,West,280,0.0,2.0,56,0.00,,,0.00,Wunderground v.1.15,2013-01-25 21:40:00,
2013-01-25 16:50:00,21.5,8.2,30.18,West,259,0.0,2.0,56,0.00,,,0.00,Wunderground v.1.15,2013-01-25 21:50:00,
2013-01-25 17:00:00,21.4,8.1,30.18,WNW,299,0.0,2.0,56,0.00,,,0.00,Wunderground v.1.15,2013-01-25 22:00:00,
2013-01-25 17:10:00,21.5,6.6,30.18,West,280,1.0,2.0,52,0.00,,,0.00,Wunderground v.1.15,2013-01-25 22:10:00,
2013-01-25 17:20:00,21.4,5.2,30.17,West,276,1.0,1.0,49,0.00,,,0.00,Wunderground v.1.15,2013-01-25 22:20:00,
2013-01-25 17:30:00,21.3,4.6,30.18,SW,218,1.0,2.0,48,0.00,,,0.00,Wunderground v.1.15,2013-01-25 22:30:00,
2013-01-25 17:40:00,21.1,4.4,30.17,West,271,1.0,2.0,48,0.00,,,0.00,Wunderground v.1.15,2013-01-25 22:40:00,
2013-01-25 17:50:00,21.1,4.4,30.17,West,281,1.0,2.0,48,0.00,,,0.00,Wunderground v.1.15,2013-01-25 22:50:00,
2013-01-25 18:00:00,21.1,4.4,30.17,West,281,1.0,2.0,48,0.00,,,0.00,Wunderground v.1.15,2013-01-25 23:00:00,
2013-01-25 18:10:00,21.0,3.9,30.16,West,269,1.0,2.0,47,0.00,,,0.00,Wunderground v.1.15,2013-01-25 23:10:00,
2013-01-25 18:20:00,21.1,4.0,30.16,West,278,1.0,2.0,47,0.00,,,0.00,Wunderground v.1.15,2013-01-25 23:20:00,
2013-01-25 18:30:00,21.1,4.4,30.16,West,281,0.0,2.0,48,0.00,,,0.00,Wunderground v.1.15,2013-01-25 23:30:00,
2013-01-25 18:40:00,21.0,3.4,30.16,West,278,0.0,2.0,46,0.00,,,0.00,Wunderground v.1.15,2013-01-25 23:40:00,
2013-01-25 18:50:00,21.0,4.8,30.15,West,278,0.0,2.0,49,0.00,,,0.00,Wunderground v.1.15,2013-01-25 23:50:00,
2013-01-25 19:00:00,20.8,4.6,30.16,West,278,0.0,2.0,49,0.00,,,0.00,Wunderground v.1.15,2013-01-26 00:00:00,
2013-01-25 19:10:00,20.7,4.1,30.15,West,278,0.0,2.0,48,0.00,,,0.00,Wunderground v.1.15,2013-01-26 00:10:00,
2013-01-25 19:20:00,20.4,4.7,30.16,West,278,0.0,2.0,50,0.00,,,0.00,Wunderground v.1.15,2013-01-26 00:20:00,
2013-01-25 19:30:00,20.4,4.7,30.16,West,278,0.0,2.0,50,0.00,,,0.00,Wunderground v.1.15,2013-01-26 00:30:00,
2013-01-25 19:40:00,20.5,5.2,30.16,West,278,0.0,2.0,51,0.00,,,0.00,Wunderground v.1.15,2013-01-26 00:40:00,
2013-01-25 19:50:00,20.8,5.1,30.16,West,259,0.0,2.0,50,0.00,,,0.00,Wunderground v.1.15,2013-01-26 00:50:00,
2013-01-25 20:00:00,20.8,6.7,30.15,West,259,0.0,2.0,54,0.00,,,0.00,Wunderground v.1.15,2013-01-26 01:00:00,
2013-01-25 20:10:00,20.7,5.4,30.15,West,259,0.0,2.0,51,0.00,,,0.00,Wunderground v.1.15,2013-01-26 01:10:00,
2013-01-25 20:20:00,20.8,5.1,30.15,West,269,0.0,2.0,50,0.00,,,0.00,Wunderground v.1.15,2013-01-26 01:20:00,
2013-01-25 20:30:00,20.7,4.5,30.14,West,268,0.0,2.0,49,0.00,,,0.00,Wunderground v.1.15,2013-01-26 01:30:00,
2013-01-25 20:40:00,20.6,5.3,30.13,West,274,0.0,2.0,51,0.00,,,0.00,Wunderground v.1.15,2013-01-26 01:40:00,
2013-01-25 20:50:00,20.3,4.6,30.11,WNW,290,0.0,2.0,50,0.00,,,0.00,Wunderground v.1.15,2013-01-26 01:50:00,
2013-01-25 21:00:00,20.2,4.9,30.10,WNW,290,0.0,2.0,51,0.00,,,0.00,Wunderground v.1.15,2013-01-26 02:00:00,
2013-01-25 21:10:00,19.9,6.7,30.09,WNW,290,0.0,2.0,56,0.00,,,0.00,Wunderground v.1.15,2013-01-26 02:10:00,
2013-01-25 21:20:00,19.9,5.5,30.09,WNW,290,0.0,2.0,53,0.00,,,0.00,Wunderground v.1.15,2013-01-26 02:20:00,
2013-01-25 21:30:00,20.1,6.5,30.09,WNW,290,0.0,2.0,55,0.00,,,0.00,Wunderground v.1.15,2013-01-26 02:30:00,
2013-01-25 21:40:00,20.1,5.3,30.10,WNW,290,0.0,2.0,52,0.00,,,0.00,Wunderground v.1.15,2013-01-26 02:40:00,
2013-01-25 21:50:00,20.0,6.0,30.11,WNW,290,0.0,2.0,54,0.00,,,0.00,Wunderground v.1.15,2013-01-26 02:50:00,
2013-01-25 22:00:00,20.0,8.0,30.11,WNW,290,0.0,2.0,59,0.00,,,0.00,Wunderground v.1.15,2013-01-26 03:00:00,
2013-01-25 22:10:00,20.1,7.3,30.10,WNW,290,0.0,2.0,57,0.00,,,0.00,Wunderground v.1.15,2013-01-26 03:10:00,
2013-01-25 22:20:00,20.4,6.0,30.10,WNW,290,0.0,2.0,53,0.00,,,0.00,Wunderground v.1.15,2013-01-26 03:20:00,
2013-01-25 22:30:00,20.6,6.2,30.10,WNW,290,0.0,2.0,53,0.00,,,0.00,Wunderground v.1.15,2013-01-26 03:30:00,
2013-01-25 22:40:00,20.7,6.2,30.09,SW,224,0.0,2.0,53,0.00,,,0.00,Wunderground v.1.15,2013-01-26 03:40:00,
2013-01-25 22:50:00,20.7,6.7,30.09,SW,224,0.0,2.0,54,0.00,,,0.00,Wunderground v.1.15,2013-01-26 03:50:00,
2013-01-25 23:00:00,21.1,7.0,30.08,West,262,0.0,2.0,54,0.00,,,0.00,Wunderground v.1.15,2013-01-26 04:00:00,
2013-01-25 23:10:00,21.3,7.6,30.08,WSW,250,0.0,2.0,55,0.00,,,0.00,Wunderground v.1.15,2013-01-26 04:10:00,
2013-01-25 23:20:00,21.5,8.2,30.07,West,278,1.0,1.0,56,0.00,,,0.00,Wunderground v.1.15,2013-01-26 04:20:00,
2013-01-25 23:30:00,21.5,9.0,30.06,West,262,0.0,2.0,58,0.00,,,0.00,Wunderground v.1.15,2013-01-26 04:30:00,
2013-01-25 23:40:00,21.5,9.4,30.07,WSW,237,0.0,2.0,59,0.00,,,0.00,Wunderground v.1.15,2013-01-26 04:40:00,
2013-01-25 23:50:00,21.3,9.6,30.06,West,266,0.0,2.0,60,0.00,,,0.00,Wunderground v.1.15,2013-01-26 04:50:00,